Location: Newark
(12.4436°N, 0.6167°W)
Time: 04:51:36
(UTC+00:00)

Vanguard 2 - Pass Details

Date: 10 December 2019
Orbit: 553 x 2938 km, 32.9° (Epoch: 24 January)

Event Time Altitude Azimuth Distance (km) Brightness Sun altitude
Rises 01:23:36 0° 263° (W) 5,508 - -66.5°
Reaches altitude 10° 01:27:01 10° 269° (W) 4,787 - -65.8°
Maximum altitude 01:41:04 49° 340° (NNW) 3,369 - -62.7°
Exits shadow 01:51:48 26° 39° (NE) 4,550 11.3 -60.3°
Drops below altitude 10° 01:58:11 10° 51° (NE) 5,698 12.0 -58.9°
Sets 02:02:47 0° 57° (ENE) 6,586 12.5 -57.9°
